This is the latest recevied weather packets stored in our database for station/object HB9FHL-13. If no packets are shown the sender has not sent any weather packets the latest 10 day(s).
| Time | Temp. | Humidity | Pressure | Rain* | Wind** | Luminosity | Snow |
|---|---|---|---|---|---|---|---|
| 1777831210 | 14.44° C | - | 1015.9 hPa | 0 mm | - | - | - |
| 1777830910 | 15° C | - | 1017.1 hPa | 0 mm | - | - | - |
| 1777830609 | 15° C | - | 1021.2 hPa | 0 mm | - | - | - |
| 1777830309 | 13.89° C | - | 1019.5 hPa | 0 mm | - | - | - |
| 1777830008 | 15° C | - | 1013.7 hPa | 0 mm | - | - | - |
| 1777829708 | 14.44° C | - | 1015.7 hPa | 0 mm | - | - | - |
| 1777829407 | 14.44° C | - | 1015.6 hPa | 0 mm | - | - | - |
| 1777829107 | 14.44° C | - | 1016.9 hPa | 0 mm | - | - | - |
| 1777828805 | 15° C | - | 1016.9 hPa | 0 mm | - | - | - |
| 1777828504 | 14.44° C | - | 1014.8 hPa | 0 mm | - | - | - |
| 1777828204 | 15° C | - | 1012.2 hPa | 0 mm | - | - | - |
| 1777827904 | 15° C | - | 1012.3 hPa | 0 mm | - | - | - |
| 1777827603 | 15.56° C | - | 1018.2 hPa | 0 mm | - | - | - |
| 1777827300 | 15.56° C | - | 1013.8 hPa | 0 mm | - | - | - |
| 1777826699 | 15° C | - | 1013.4 hPa | 0 mm | - | - | - |
| 1777826399 | 16.67° C | - | 1013.2 hPa | 0 mm | - | - | - |
| 1777826098 | 15.56° C | - | 1014.5 hPa | 0 mm | - | - | - |
| 1777825797 | 16.11° C | - | 1010.7 hPa | 0 mm | - | - | - |
| 1777825497 | 15.56° C | - | 1015.7 hPa | 0 mm | - | - | - |
| 1777825196 | 15.56° C | - | 1012.3 hPa | 0 mm | - | - | - |
| 1777824896 | 16.67° C | - | 1010.8 hPa | 0 mm | - | - | - |
| 1777824595 | 15.56° C | - | 1013.7 hPa | 0 mm | - | - | - |
| 1777824295 | 15.56° C | - | 1010 hPa | 0 mm | - | - | - |
| 1777823994 | 17.22° C | - | 1014.3 hPa | 0 mm | - | - | - |
| 1777823694 | 16.67° C | - | 1018.6 hPa | 0 mm | - | - | - |
* Rain since midnight (hover to see other rain measurements)
** Current wind speed in m/s (hover to see current wind gust speed)